AEROCUBE 7

Last updated on Sun Jun 21 2026 00:03:50 GMT+0000 (Coordinated Universal Time)

1 40966U 15058C 26171.44339308 .00002336 00000+0 19493-3 0 9997 2 40966 64.7612 234.6168 0120641 60.4023 300.9047 14.95741024366445
UTC large
Height (km)
Speed (km/s)
/
Latitude / Longitude
Inclination (degrees)
Orbital Period (minutes)
Azimuth
Elevation
Range (km)
Doppler Factor

Next 0 passes for location: London (51.5072 / 0.1276)

No passes found over London.
AEROCUBE 7